Terminal Aerodrome Forecast
Issued by NWS

Home | Current Version | Previous Version | Text Only | Print | Product List | Glossary On
Versions: 1 2 3 4 5 6 7 8 9 10 11 12 13 14
000
FTPA31 PHFO 260416 AAA
TAFHNY
TAF AMD
PHNY 260416Z 2604/2624 VRB05KT P6SM SCT015 BKN035
      TEMPO 2604/2606 -SHRA BKN015
     FM261900 29007KT P6SM BKN020=

USA.gov is the U.S. government's official web portal to all federal, state and local government web resources and services.